TimeMDT,TemperatureF,Dew PointF,Humidity,Sea Level PressureIn,VisibilityMPH,Wind Direction,Wind SpeedMPH,Gust SpeedMPH,PrecipitationIn,Events,Conditions,WindDirDegrees,DateUTC
12:53 AM,46.0,39.0,76,29.94,10.0,SSW,11.5,-,N/A,,Clear,200,2013-04-02 06:53:00
1:53 AM,45.0,37.9,76,29.95,10.0,SSW,9.2,-,N/A,,Clear,200,2013-04-02 07:53:00
2:53 AM,42.1,37.0,82,29.96,10.0,SSW,5.8,-,N/A,,Clear,210,2013-04-02 08:53:00
3:49 AM,37.4,35.6,93,30.02,10.0,Calm,Calm,-,N/A,,Mostly Cloudy,0,2013-04-02 09:49:00
3:53 AM,37.9,35.1,89,29.99,9.0,Calm,Calm,-,N/A,,Mostly Cloudy,0,2013-04-02 09:53:00
4:53 AM,41.0,37.9,89,29.98,10.0,Calm,Calm,-,N/A,,Overcast,0,2013-04-02 10:53:00
5:53 AM,41.0,37.9,89,29.99,9.0,Calm,Calm,-,N/A,,Overcast,0,2013-04-02 11:53:00
6:53 AM,41.0,37.9,89,30.00,10.0,Calm,Calm,-,N/A,,Overcast,0,2013-04-02 12:53:00
7:53 AM,41.0,37.9,89,30.04,10.0,Calm,Calm,-,N/A,,Overcast,0,2013-04-02 13:53:00
8:43 AM,44.6,39.2,81,30.07,10.0,Calm,Calm,-,N/A,,Clear,0,2013-04-02 14:43:00
8:53 AM,45.0,39.9,82,30.04,10.0,Calm,Calm,-,N/A,,Scattered Clouds,0,2013-04-02 14:53:00
9:53 AM,48.0,41.0,77,30.05,10.0,NNW,9.2,-,N/A,,Scattered Clouds,340,2013-04-02 15:53:00
10:53 AM,51.1,39.9,66,30.06,10.0,NNW,4.6,-,N/A,,Scattered Clouds,340,2013-04-02 16:53:00
11:53 AM,54.0,39.0,57,30.05,10.0,Variable,5.8,-,N/A,,Scattered Clouds,0,2013-04-02 17:53:00
12:53 PM,57.0,37.0,47,30.03,10.0,North,5.8,-,N/A,,Clear,360,2013-04-02 18:53:00
1:53 PM,57.9,36.0,44,30.01,10.0,NNW,8.1,-,N/A,,Clear,330,2013-04-02 19:53:00
2:53 PM,60.1,33.1,36,30.00,10.0,Variable,4.6,-,N/A,,Clear,0,2013-04-02 20:53:00
3:53 PM,62.1,30.0,30,29.99,10.0,SSW,4.6,-,N/A,,Scattered Clouds,210,2013-04-02 21:53:00
4:53 PM,64.9,17.1,16,29.96,10.0,North,4.6,-,N/A,,Clear,350,2013-04-02 22:53:00
5:53 PM,64.0,21.0,19,29.95,10.0,Calm,Calm,-,N/A,,Clear,0,2013-04-02 23:53:00
6:53 PM,63.0,28.9,28,29.96,10.0,SSW,5.8,-,N/A,,Clear,200,2013-04-03 00:53:00
7:53 PM,59.0,32.0,36,29.97,10.0,SSW,9.2,-,N/A,,Clear,200,2013-04-03 01:53:00
8:53 PM,55.9,30.9,39,29.97,10.0,SSW,9.2,-,N/A,,Clear,200,2013-04-03 02:53:00
9:53 PM,54.0,30.9,41,29.99,10.0,SSW,10.4,-,N/A,,Clear,200,2013-04-03 03:53:00
10:53 PM,51.1,33.1,50,30.01,10.0,SSW,10.4,-,N/A,,Clear,210,2013-04-03 04:53:00
11:53 PM,48.9,34.0,56,30.01,10.0,SW,9.2,-,N/A,,Scattered Clouds,220,2013-04-03 05:53:00